sat.trackr.live / text

‹ back to catalog

STARLINK-34348

NORAD 64152 · 2025-112G

PAYLOAD ACTIVE UNKNOWN

§ Identity

Operator
Country
US
Launch date
2025-05-27
Launch site
AFWTR
Launch vehicle
Mass (kg)
RCS (m²)

Purposes: comms

External: N2YO · Heavens-Above · Gunter

§ Orbital elements

Epoch: 2026-05-25T03:41:56.698080Z

Period
95.63 min
Inclination
97.4504°
Eccentricity
0.0000938
Mean motion
15.05726763 rev/d
Perigee alt
548.6 km
Apogee alt
549.9 km
Semi-major
6,927.4 km
B*
2.7399e-3
RAAN
196.5168°
Arg perigee
102.6864°
Mean anomaly
257.4468°
Rev number
5,481

§ Raw data

STARLINK-343481 64152U 25112G   26145.15412845  .00039777  00000+0  27399-2 0  99912 64152  97.4504 196.5168 0000938 102.6864 257.4468 15.05726763 54818

JSON: /api/v1/satellites/64152 · /tle

For live sub-satellite position, see the globe view (requires WebGL).

§ Visibility from observer

Set your observer location to see the next 7 days of passes ≥ 10°. The values pass through the URL so the page stays shareable.

No JS? Fill the form by hand. The geolocation button needs JavaScript.